Vorticity
nan nan nan nan nan nan nan nan nan nan nan nan nan nan nan nan nan nan nan nan nan nan nan nan nan nan nan nan nan nan nan nan nan nan nan nan nan nan nan nan nan nan nan
nan 4 5 6 7 6 6 6 6 6 7 7 6 6 6 6 6 6 6 5 6 5 3 3 2 3 5 8 10 8 5 5 7 6 5 5 4 5 8 8 8 10 nan
nan 7 6 6 7 8 8 7 6 6 6 6 6 6 6 6 6 6 6 5 5 6 5 4 2 3 5 6 7 6 5 6 6 8 6 5 5 6 6 8 9 7 nan
nan 7 6 7 8 8 7 8 8 6 6 6 6 6 6 6 5 5 5 5 5 6 5 5 4 5 5 6 6 6 6 7 8 6 6 6 6 8 7 6 7 6 nan
nan 7 8 10 9 9 9 9 8 8 7 7 7 6 6 6 6 5 5 5 6 5 6 6 6 5 6 5 7 7 6 7 7 4 6 7 6 9 8 7 7 6 nan
nan 4 6 9 11 11 9 9 9 9 9 9 9 9 8 7 6 5 5 5 6 6 6 6 6 6 6 5 8 8 7 8 4 5 5 5 7 7 7 4 6 8 nan
nan 4 4 5 8 9 8 8 8 8 8 8 8 8 10 10 8 7 7 6 5 6 6 7 7 7 7 6 8 8 7 6 5 5 5 5 8 5 6 3 4 5 nan
nan 6 3 2 3 4 6 6 6 7 7 7 8 8 9 9 12 12 6 7 6 6 6 7 7 8 7 7 8 7 7 4 4 6 5 6 8 6 4 4 5 4 nan
nan 7 5 4 1 1 2 5 6 6 7 8 7 6 6 7 8 11 13 10 6 6 6 6 7 7 8 8 8 7 6 5 2 6 7 7 7 5 4 7 6 10 nan
nan 5 5 6 6 4 1 2 6 5 7 6 5 7 10 8 6 7 11 11 9 7 6 7 7 7 8 9 7 7 7 5 5 5 6 8 7 7 6 8 7 7 nan
nan 5 6 6 7 7 6 3 3 4 5 5 5 8 12 8 7 6 7 6 10 11 8 7 7 8 8 7 9 9 6 5 7 5 7 10 8 8 10 7 6 7 nan
nan 4 6 6 8 9 6 5 6 5 5 4 6 8 8 7 8 9 10 10 10 10 12 10 7 7 6 7 9 8 6 7 7 6 7 8 7 6 10 12 11 7 nan
nan 4 5 7 7 8 8 8 7 6 6 5 5 8 9 9 8 10 10 10 10 11 10 10 10 7 6 6 6 7 6 7 8 8 9 8 7 5 11 14 9 8 nan
nan 6 5 7 8 9 9 7 7 7 7 6 4 7 10 8 7 8 7 6 9 9 9 9 9 10 9 6 6 6 6 6 6 8 11 10 8 8 13 12 5 7 nan
nan 6 6 7 8 7 9 9 7 7 7 7 6 7 8 8 8 7 8 8 8 8 11 11 8 9 11 8 8 7 7 6 4 4 11 11 8 10 15 11 7 6 nan
nan 6 8 7 7 8 8 9 9 7 7 8 6 5 8 9 7 7 8 9 8 8 6 11 13 11 10 10 9 8 7 6 7 5 6 9 11 9 15 12 8 6 nan
nan 6 7 7 7 9 8 8 8 7 8 8 7 6 7 8 7 9 9 7 8 7 9 8 12 13 9 12 10 9 9 8 7 7 6 7 10 10 11 14 11 6 nan
nan 7 8 8 7 7 8 8 8 8 8 7 7 6 6 7 9 9 8 7 7 8 10 9 7 12 13 8 10 10 9 10 9 8 6 6 6 10 11 14 13 11 nan
nan 7 7 7 7 8 9 9 8 8 8 8 8 6 5 8 8 10 9 7 8 10 9 9 8 7 11 13 7 8 10 10 9 11 10 7 7 6 9 9 10 13 nan
nan 8 8 7 6 10 11 10 9 7 6 7 7 5 7 7 7 9 9 8 9 8 8 7 9 10 7 10 13 9 9 10 9 10 12 11 10 8 7 5 9 14 nan
nan 7 8 8 8 10 10 12 8 5 7 7 5 5 8 8 8 9 9 8 8 8 8 8 9 10 11 9 12 12 11 13 10 8 10 12 11 11 8 7 6 10 nan
nan 7 7 8 10 10 9 10 9 7 8 7 6 7 7 7 9 8 7 9 9 8 9 9 9 10 11 9 8 10 13 10 13 11 7 11 11 11 12 9 9 8 nan
nan 7 8 8 10 9 9 10 10 10 8 7 7 8 6 8 10 8 9 10 9 10 10 8 9 8 8 9 8 9 6 7 11 12 8 7 11 9 12 11 10 10 nan
nan 8 8 8 9 9 9 9 9 9 9 8 8 6 6 7 8 10 10 9 9 11 8 8 8 10 8 7 13 9 4 7 4 8 11 13 9 9 9 9 9 11 nan
nan 8 8 8 9 8 9 9 9 9 10 8 6 7 10 9 9 9 9 8 10 9 8 10 9 8 8 8 8 7 10 14 10 5 6 11 11 10 10 11 9 11 nan
nan nan nan nan nan nan nan nan nan nan nan nan nan nan nan nan nan nan nan nan nan nan nan nan nan nan nan nan nan nan nan nan nan nan nan nan nan nan nan nan nan nan nan
CAPE
1019 1496 1414 1711 1611 1464 1314 1259 1298 1397 1600 1875 2069 2286 2408 2409 2321 2255 2269 2185 2215 2278 1689 1392 977 1002 1039 984 1288 1273 1279 929 734 1073 723 785 891 769 642 665 556 294 312
1447 1504 1254 1602 1761 1626 1546 1492 1561 1709 1770 1809 1907 1982 2100 2263 2297 2228 2206 2319 2498 2164 1892 1569 1098 925 947 1009 1146 1344 1343 1011 937 1101 1031 797 882 749 709 520 442 343 364
1587 1508 1449 1436 1772 1909 1868 1826 1916 1990 1754 1646 1783 1892 2058 2185 2248 2149 2113 2162 2383 2324 1981 1710 1410 1216 1115 1134 1320 1469 1258 1003 893 1041 1167 905 711 669 440 391 443 342 375
1520 1471 1387 1141 1497 1812 1894 2004 1977 1955 1775 1780 1771 1801 1885 2031 2123 2200 2146 2029 2039 2116 1885 1820 1603 1495 1336 1117 1184 1299 1168 984 909 1055 824 502 476 693 510 303 384 260 298
1524 1526 1300 939 1158 1665 1796 1833 1897 1890 1744 1648 1672 1793 1788 1792 1954 2077 2021 1946 1925 1899 1900 1879 1768 1839 1337 1013 990 1130 1057 966 880 699 809 746 782 508 280 373 282 407 376
159 50 4 306 993 1307 1351 1236 1307 1465 1541 1690 1771 1867 1876 1904 1954 1937 1760 1787 1801 2048 2029 1987 2054 1822 1052 882 848 1006 1027 927 606 1164 1022 833 783 640 382 558 331 343 360
0 0 0 0 0 137 576 715 836 918 952 1068 1363 1483 1669 1858 2006 1900 1675 1614 1779 1856 1935 1894 1756 1630 980 838 741 877 934 465 1077 1158 972 784 826 797 500 213 456 318 311
0 0 0 0 0 0 0 0 0 3 165 459 740 843 1028 1096 1386 1789 1710 1549 1578 1626 1766 1635 1463 1424 1082 861 696 722 729 329 668 947 875 812 885 968 840 614 486 317 601
0 0 0 0 0 0 0 0 0 0 0 0 45 51 63 355 662 943 1463 1519 1483 1503 1450 1480 1228 989 1038 895 667 512 686 387 928 1024 759 762 872 921 898 753 307 544 635
0 0 0 0 0 0 0 0 0 0 0 0 0 0 0 21 347 722 915 1519 1381 1395 1405 1324 1172 1010 828 887 660 401 377 347 1053 961 887 722 574 857 793 305 298 705 571
0 0 0 0 0 0 0 0 0 0 0 0 0 0 0 0 247 561 594 722 985 1192 1250 1267 1165 1047 803 765 725 50 32 1160 1091 837 728 514 413 739 906 379 231 633 618
0 0 0 0 0 0 0 0 0 0 0 0 0 0 0 0 0 10 358 447 654 889 1012 1213 1197 1081 722 1458 1280 333 1010 1216 1089 856 643 131 189 519 711 719 408 602 604
0 0 0 0 0 0 0 0 0 0 0 0 0 0 0 0 0 0 20 634 1184 1176 1603 1715 1744 1754 1575 1460 1213 846 769 1052 1144 1018 524 0 4 256 767 625 383 339 414
0 0 0 0 0 0 0 0 0 0 0 0 0 0 0 0 0 0 0 0 296 1087 1467 1647 1933 1929 1841 1495 834 705 564 537 519 1152 810 1 0 84 489 706 474 303 253
0 0 0 0 0 0 0 0 0 0 0 0 0 0 0 0 0 0 0 0 0 0 576 1035 1652 1653 1893 1625 768 693 500 388 450 1198 1012 85 0 42 710 843 632 528 399
0 0 0 0 0 0 0 0 0 0 0 0 0 0 0 0 0 0 0 0 0 0 0 91 909 1238 1498 1595 995 570 594 716 1264 1244 1140 925 0 0 351 913 771 624 682
0 0 0 0 0 0 0 0 0 0 0 0 0 0 0 0 0 0 0 0 0 0 0 0 2 828 1120 1220 905 578 661 944 1245 1239 1185 1005 628 0 1 454 590 726 876
0 0 0 0 0 0 0 0 0 0 0 0 0 0 0 0 0 0 0 0 0 0 0 0 0 27 824 848 794 887 1260 1298 1011 1177 1163 981 845 712 66 6 316 433 416
0 0 0 0 0 0 0 0 0 0 0 0 0 0 0 0 0 1 0 0 6 2 3 2 0 0 66 1050 925 939 1066 1088 1109 753 1113 1018 911 743 690 55 1 159 192
0 0 0 0 0 0 0 0 0 0 0 0 0 0 0 0 0 1 1 3 5 5 6 10 10 1 0 23 929 803 819 928 1072 871 763 969 911 885 684 511 286 267 31
0 0 0 0 0 0 0 0 0 0 0 0 0 0 0 0 2 3 2 3 7 4 5 2 3 13 1 0 467 900 860 811 910 851 514 705 789 924 892 674 830 813 369
0 0 0 0 0 0 0 0 0 0 0 0 0 0 0 2 4 5 8 8 9 10 8 6 4 1 14 3 63 672 651 680 547 708 553 449 484 585 727 670 648 512 929
0 0 0 0 0 0 0 0 0 0 0 0 0 0 0 4 5 5 3 6 7 8 18 15 12 8 6 11 6 199 565 905 1043 845 481 451 462 351 403 495 441 363 898
0 0 0 0 0 0 0 0 0 0 0 0 0 1 2 4 4 7 5 4 12 13 21 20 10 21 15 6 15 1 475 527 917 955 754 698 415 345 331 414 455 457 630
0 0 0 0 0 0 0 0 0 0 0 0 0 1 1 3 5 7 7 9 11 16 8 20 18 18 25 19 10 9 11 688 591 561 882 596 450 340 285 514 457 400 261
0 0 0 0 0 0 0 0 0 0 1 0 0 1 2 4 5 5 8 8 10 13 10 17 19 15 17 28 9 13 19 14 438 823 668 1006 418 456 372 317 455 439 270